Weather reports worldwide

Advertisment
Geisenheim, Germany (10628): temperature & dewpoint: 01.08.2020 03:00:00 - 07.08.2020 03:00:00 (CEST)Geisenheim, Germany (10628): temperature 5cm & temperature -5cm: 01.08.2020 03:00:00 - 07.08.2020 03:00:00 (CEST)Geisenheim, Germany (10628): temperature -20cm & temperature -100cm: 01.08.2020 03:00:00 - 07.08.2020 03:00:00 (CEST)Geisenheim, Germany (10628): wind speed & gusts: 01.08.2020 03:00:00 - 07.08.2020 03:00:00 (CEST)Geisenheim, Germany (10628): wind direction: 01.08.2020 03:00:00 - 07.08.2020 03:00:00 (CEST)Geisenheim, Germany (10628): reduced air pressure: 01.08.2020 03:00:00 - 07.08.2020 03:00:00 (CEST)Geisenheim, Germany (10628): visibility: 01.08.2020 03:00:00 - 07.08.2020 03:00:00 (CEST)Geisenheim, Germany (10628): sunshine duration: 01.08.2020 03:00:00 - 07.08.2020 03:00:00 (CEST)Geisenheim, Germany (10628): precipitation: 01.08.2020 03:00:00 - 07.08.2020 03:00:00 (CEST)
Date & Time tt [°C] td [°C] tt 5cm [°C] tt -5cm [°C] tt -20cm [°C] tt -100cm [°C] ff [km/h] ff [kn] fx [km/h] fx [kn] dd ppp [hPa] vv [km] sd [min] rr [mm]
07.08.2020 03:00:00 18,2 11,6 15,4 22,5 25,6 21,5 4 2 8 4 NW 1020,2 69 0 0,0
07.08.2020 02:00:00 19,9 13,0 16,9 23,3 26,0 21,5 5 3 10 5 W 1020,2 65 0 0,0
07.08.2020 01:00:00 20,2 12,0 17,8 24,1 26,4 21,5 6 3 9 5 WNW 1020,3 66 0 0,0
07.08.2020 00:00:00 20,9 11,5 18,5 25,2 26,8 21,5 5 3 9 5 NW 1020,1 59 0 0,0
06.08.2020 23:00:00 23,0 11,4 19,1 26,5 27,1 21,5 3 2 9 5 NNW 1019,6 65 0 0,0
06.08.2020 22:00:00 25,1 11,2 21,6 28,2 27,4 21,5 8 4 13 7 NNE 1019,4 75 0 0,0
06.08.2020 21:00:00 26,7 11,6 24,0 30,3 27,4 21,5 8 4 10 5 NNE 1018,7 65 39 0,0
06.08.2020 20:00:00 29,6 10,2 30,9 32,4 27,3 21,5 7 4 17 9 E 1018,4 62 60 0,0
06.08.2020 19:00:00 30,1 10,4 33,9 34,1 27,0 21,5 8 4 16 9 E 1018,2 75 60 0,0
06.08.2020 18:00:00 30,5 10,4 38,2 34,9 26,5 21,5 7 4 18 10 ENE 1018,4 61 60 0,0
06.08.2020 17:00:00 30,5 10,6 39,1 35,2 25,8 21,5 10 5 18 10 ESE 1018,5 75 60 0,0
06.08.2020 16:00:00 29,8 10,6 39,6 34,8 25,1 21,5 11 6 21 12 ESE 1018,9 27 60 0,0
06.08.2020 15:00:00 29,2 10,4 38,4 33,8 24,3 21,5 8 4 23 12 E 1019,3 48 60 0,0
06.08.2020 14:00:00 27,7 10,5 37,2 32,3 23,5 21,5 8 4 24 13 E 1019,6 72 60 0,0
06.08.2020 13:00:00 27,5 10,6 35,8 30,1 22,9 21,5 12 7 20 11 ESE 1020,3 53 60 0,0
06.08.2020 12:00:00 25,8 10,3 33,3 27,5 22,4 21,5 13 7 21 12 E 1020,6 73 60 0,0
06.08.2020 11:00:00 24,9 10,2 30,2 24,6 22,1 21,5 9 5 16 9 E 1020,8 75 60 0,0
06.08.2020 10:00:00 22,5 10,9 26,7 21,6 22,0 21,5 7 4 11 6 ESE 1021,2 64 60 0,0
06.08.2020 09:00:00 19,0 11,4 21,3 19,5 22,2 21,5 3 2 6 3 SW 1021,1 44 60 0,0
06.08.2020 08:00:00 16,7 10,4 16,6 18,3 22,5 21,5 2 1 4 2 SSW 1020,9 54 60 0,0
06.08.2020 07:00:00 13,9 9,7 11,4 18,1 22,8 21,5 2 1 6 3 ESE 1020,7 66 15 0,0
06.08.2020 06:00:00 14,1 9,6 11,1 18,6 23,1 21,5 3 2 7 4 NW 1020,0 60 0 0,0
06.08.2020 05:00:00 14,6 9,7 11,9 19,2 23,5 21,5 3 2 10 6 NW 1019,7 72 0 0,0
06.08.2020 04:00:00 15,1 9,3 13,1 19,8 23,9 21,5 8 4 10 6 NNW 1019,5 75 0 0,0
06.08.2020 03:00:00 15,9 9,2 13,6 20,4 24,3 21,5 8 4 11 6 NNW 1019,4 68 0 0,0
06.08.2020 02:00:00 16,8 8,8 14,4 21,2 24,7 21,5 7 4 11 6 N 1019,2 73 0 0,0
06.08.2020 01:00:00 17,3 8,6 15,2 22,1 25,1 21,5 9 5 12 6 NNW 1019,0 63 0 0,0
06.08.2020 00:00:00 18,3 8,5 16,4 23,1 25,5 21,5 10 5 11 6 N 1018,6 75 0 0,0
05.08.2020 23:00:00 19,3 8,3 17,3 24,4 25,9 21,5 9 5 13 7 N 1018,1 62 0 0,0
05.08.2020 22:00:00 20,9 8,4 18,9 26,0 26,1 21,5 10 5 11 6 N 1017,5 63 0 0,0
05.08.2020 21:00:00 24,3 8,0 20,2 28,2 26,2 21,5 5 3 10 5 S 1016,9 60 40 0,0
05.08.2020 20:00:00 27,0 6,6 28,8 30,2 26,1 21,5 5 3 13 7 SE 1016,6 75 60 0,0
05.08.2020 19:00:00 27,5 6,1 32,1 31,7 25,8 21,5 9 5 21 11 SE 1016,4 56 60 0,0
05.08.2020 18:00:00 28,0 5,7 34,4 32,7 25,4 21,6 10 5 21 12 SE 1016,5 13 60 0,0
05.08.2020 17:00:00 27,6 5,5 35,1 33,2 24,8 21,6 16 9 27 15 S 1016,6 52 60 0,0
05.08.2020 16:00:00 27,6 5,4 37,1 33,1 24,0 21,6 9 5 24 13 ESE 1016,7 66 60 0,0
05.08.2020 15:00:00 26,7 6,9 35,7 32,2 23,3 21,6 13 7 23 12 SSE 1017,2 56 60 0,0
05.08.2020 14:00:00 26,2 7,7 36,2 30,4 22,5 21,6 8 4 20 11 ESE 1017,6 46 53 0,0
05.08.2020 13:00:00 25,9 8,6 34,2 29,1 21,8 21,6 9 5 18 10 S 1018,1 45 60 0,0
05.08.2020 12:00:00 24,3 9,6 31,6 26,4 21,2 21,6 6 4 12 6 S 1018,5 63 60 0,0
05.08.2020 11:00:00 22,4 10,7 27,9 23,3 20,9 21,6 4 2 11 6 SSE 1019,0 67 60 0,0
05.08.2020 10:00:00 19,4 9,9 23,8 20,1 20,9 21,6 5 3 10 5 SSE 1019,3 46 60 0,0
05.08.2020 09:00:00 17,1 9,8 19,7 18,0 21,0 21,6 4 2 6 4 S 1019,3 58 60 0,0
05.08.2020 08:00:00 15,5 9,6 14,9 16,7 21,2 21,6 3 1 5 3 S 1019,3 63 60 0,0
05.08.2020 07:00:00 12,3 8,3 10,7 16,3 21,6 21,6 5 3 9 5 NW 1019,1 55 16 0,0
05.08.2020 06:00:00 11,7 7,7 9,9 16,7 21,9 21,6 7 4 9 5 N 1019,0 63 0 0,0
05.08.2020 05:00:00 12,2 7,7 10,3 17,2 22,3 21,6 5 3 8 4 NNW 1018,4 59 0 0,0
05.08.2020 04:00:00 12,8 7,3 10,9 17,8 22,6 21,6 5 3 8 4 NW 1018,3 65 0 0,0
05.08.2020 03:00:00 14,0 7,5 11,7 18,5 23,0 21,7 6 3 9 5 NW 1018,1 67 0 0,0
05.08.2020 02:00:00 14,5 7,4 12,6 19,2 23,4 21,7 8 4 10 6 NNW 1017,9 73 0 0,0
05.08.2020 01:00:00 15,2 7,2 13,2 20,0 23,7 21,7 7 4 11 6 N 1017,9 70 0 0,0
05.08.2020 00:00:00 16,6 7,5 14,4 21,0 24,1 21,7 8 4 14 8 NNW 1017,7 69 0 0,0
04.08.2020 23:00:00 17,1 7,6 15,4 21,9 24,4 21,7 10 5 13 7 N 1017,5 74 0 0,0
04.08.2020 22:00:00 18,2 8,3 16,1 23,5 24,6 21,7 10 5 15 8 NNW 1017,2 67 0 0,0
04.08.2020 21:00:00 20,8 8,5 19,2 25,3 24,7 21,7 6 3 12 6 NW 1016,4 55 8 0,0
04.08.2020 20:00:00 23,0 9,1 22,8 27,2 24,6 21,7 4 2 26 14 SSW 1016,1 63 42 0,0
04.08.2020 19:00:00 23,6 7,6 24,6 28,4 24,3 21,7 11 6 17 9 WSW 1015,8 59 33 0,0
04.08.2020 18:00:00 24,9 8,1 29,4 28,9 24,0 21,8 10 6 23 12 W 1015,6 60 36 0,0
04.08.2020 17:00:00 24,2 7,4 27,8 29,7 23,5 21,8 15 8 25 14 WNW 1015,8 60 54 0,0
04.08.2020 16:00:00 24,7 5,9 31,0 27,2 23,2 21,8 8 4 22 12 NW 1015,8 66 27 0,0
04.08.2020 15:00:00 23,4 7,6 26,7 26,4 22,8 21,8 8 5 21 11 N 1016,0 75 3 0,0
04.08.2020 14:00:00 22,8 8,5 28,2 28,1 22,2 21,8 8 4 24 13 NW 1015,9 59 38 0,0
04.08.2020 13:00:00 23,4 9,5 30,7 26,5 21,7 21,8 11 6 31 17 NNW 1016,0 42 56 0,0
04.08.2020 12:00:00 21,5 11,3 26,2 23,3 21,4 21,8 14 8 31 17 WNW 1016,0 56 25 0,0
04.08.2020 11:00:00 19,6 11,5 22,5 22,1 21,2 21,8 19 10 31 17 NNW 1016,0 63 23 0,0
04.08.2020 10:00:00 19,9 10,7 22,9 20,6 21,2 21,8 17 9 36 19 N 1015,7 71 47 0,0
04.08.2020 09:00:00 17,7 10,9 18,8 18,8 21,3 21,8 20 11 30 16 NNW 1015,4 56 52 0,0
04.08.2020 08:00:00 16,4 10,9 16,6 17,4 21,5 21,8 13 7 27 15 NNW 1015,0 75 18 0,0
04.08.2020 07:00:00 15,3 10,3 13,3 17,4 21,7 21,8 4 2 13 7 W 1014,5 59 0 0,0
04.08.2020 06:00:00 15,8 10,4 13,9 18,0 21,9 21,8 5 3 31 17 E 1013,9 58 0 0,0
04.08.2020 05:00:00 16,8 10,6 16,0 18,3 22,2 21,9 17 9 31 17 NNW 1013,3 67 0 0,0
04.08.2020 04:00:00 16,8 10,6 16,0 18,6 22,4 21,9 12 7 22 12 NNW 1013,1 67 0 0,0
04.08.2020 03:00:00 15,7 11,5 14,8 19,1 22,6 21,9 16 9 32 17 NNW 1013,0 68 0 0,1
04.08.2020 02:00:00 18,5 9,5 18,0 19,8 22,8 21,9 18 10 31 17 N 1012,6 57 0 0,0
04.08.2020 01:00:00 18,5 9,6 17,8 20,0 23,0 21,9 10 5 16 9 N 1012,5 55 0 0,0
04.08.2020 00:00:00 18,2 10,0 17,5 20,3 23,3 21,9 5 3 12 7 W 1012,3 66 0 0,0
03.08.2020 23:00:00 18,3 10,1 17,4 20,6 23,5 21,9 5 3 18 10 SE 1011,9 64 0 0,0
03.08.2020 22:00:00 18,5 9,7 18,0 21,1 23,8 21,9 13 7 20 11 NNW 1011,5 59 0 0,0
03.08.2020 21:00:00 18,8 9,2 18,2 21,7 24,0 21,9 5 3 37 20 NNW 1011,3 64 0 0,0
03.08.2020 20:00:00 19,0 9,2 18,9 22,5 24,2 21,9 22 12 35 19 NNW 1010,9 71 0 0,0
03.08.2020 19:00:00 18,5 11,4 19,0 23,6 24,2 21,9 24 13 39 21 NW 1011,0 51 0 0,0
03.08.2020 18:00:00 19,5 12,1 19,2 26,1 24,1 21,9 29 16 41 22 NW 1010,8 34 0 0,0
03.08.2020 17:00:00 23,7 8,2 26,8 27,5 23,8 21,9 6 3 13 7 NNW 1010,1 56 16 0,0
03.08.2020 16:00:00 23,3 9,3 30,7 26,4 23,6 21,9 4 2 13 7 E 1010,5 75 11 0,0
03.08.2020 15:00:00 22,7 10,2 28,1 26,0 23,3 21,9 8 4 16 9 ESE 1011,2 51 2 0,0
03.08.2020 14:00:00 22,5 11,0 26,2 26,2 23,0 21,9 8 4 15 8 SSE 1011,6 15 0 0,0
03.08.2020 13:00:00 22,5 12,2 27,6 26,1 22,6 21,9 11 6 17 9 SSE 1012,1 66 20 0,0
03.08.2020 12:00:00 21,4 12,3 25,2 24,4 22,4 21,9 9 5 15 8 ESE 1012,5 52 7 0,0
03.08.2020 11:00:00 20,9 12,5 23,6 22,2 22,4 21,9 10 5 20 11 N 1012,9 64 0 0,0
03.08.2020 10:00:00 19,5 12,9 20,9 20,6 22,4 21,9 14 8 22 12 NNW 1013,1 60 11 0,0
03.08.2020 09:00:00 17,8 12,7 18,4 19,4 22,6 21,9 13 7 21 11 N 1013,6 58 0 0,0
03.08.2020 08:00:00 17,5 12,6 17,5 19,0 22,8 21,9 13 7 19 10 N 1013,6 63 0 0,0
03.08.2020 07:00:00 16,9 12,7 16,1 18,7 23,1 21,9 4 2 22 12 NE 1013,5 46 0 0,0
03.08.2020 06:00:00 17,0 12,6 16,1 18,9 23,4 21,9 11 6 19 11 N 1013,3 50 0 0,0
03.08.2020 05:00:00 17,1 12,8 15,3 19,3 23,7 21,9 5 3 20 11 N 1013,4 55 0 0,0
03.08.2020 04:00:00 17,5 12,8 16,9 19,5 24,0 21,9 14 8 23 12 NNW 1013,7 49 0 0,0
03.08.2020 03:00:00 18,0 12,2 16,7 19,9 24,4 21,9 12 7 17 9 NNW 1014,1 59 0 0,0
03.08.2020 02:00:00 19,0 12,3 16,9 20,2 24,8 21,9 5 3 13 7 NNE 1014,3 58 0 0,0
03.08.2020 01:00:00 18,5 12,8 15,3 20,9 25,1 21,9 4 2 12 7 SSE 1014,2 52 0 0,0
03.08.2020 00:00:00 19,6 12,8 17,0 21,8 25,5 21,9 4 2 30 16 SSE 1013,9 51 0 0,0
02.08.2020 23:00:00 20,5 12,6 19,0 22,8 25,9 21,9 11 6 22 12 NW 1013,7 57 0 0,0
02.08.2020 22:00:00 21,2 10,4 18,6 24,1 26,1 21,9 7 4 10 6 NW 1013,4 67 0 0,0
02.08.2020 21:00:00 22,9 11,0 21,2 26,0 26,3 21,9 9 5 20 11 NW 1013,0 72 37 0,0
02.08.2020 20:00:00 24,7 11,0 25,0 27,7 26,3 21,9 12 7 25 13 N 1012,7 73 54 0,0
02.08.2020 19:00:00 25,4 9,8 26,1 29,8 26,1 21,9 15 8 23 13 N 1012,6 70 50 0,0
02.08.2020 18:00:00 26,7 9,7 30,5 31,0 25,8 21,8 10 5 26 14 N 1012,6 60 44 0,0
02.08.2020 17:00:00 26,5 10,3 29,5 31,7 25,4 21,8 12 6 31 17 NNW 1012,6 57 52 0,0
02.08.2020 16:00:00 27,4 11,0 33,1 30,7 25,0 21,8 16 8 31 17 NW 1012,8 75 59 0,0
02.08.2020 15:00:00 26,3 11,1 30,4 28,3 24,8 21,8 18 10 28 15 W 1013,3 75 56 0,0
02.08.2020 14:00:00 25,5 10,4 27,9 26,5 24,7 21,8 16 8 30 16 WSW 1013,6 75 28 0,0
02.08.2020 13:00:00 24,2 13,7 26,1 26,4 24,6 21,8 9 5 17 9 S 1014,3 60 14 0,0
02.08.2020 12:00:00 23,6 15,4 26,7 26,6 24,5 21,8 10 6 16 9 SSE 1014,6 52 57 0,0
02.08.2020 11:00:00 22,2 15,2 24,6 24,3 24,5 21,8 3 2 10 6 ESE 1014,8 61 19 0,0
02.08.2020 10:00:00 19,3 15,6 19,0 22,6 24,7 21,8 10 5 13 7 NW 1014,5 56 0 0,5
02.08.2020 09:00:00 19,6 15,0 18,7 22,5 25,0 21,8 5 3 21 11 WSW 1014,1 75 0 0,1
02.08.2020 08:00:00 17,8 15,3 16,9 23,2 25,2 21,8 17 9 40 22 NNW 1013,8 9 0 5,1
02.08.2020 07:00:00 20,8 15,6 20,7 23,6 25,4 21,8 20 11 42 23 NW 1013,2 42 0 0,0
02.08.2020 06:00:00 20,9 16,4 20,5 23,9 25,6 21,8 26 14 43 23 NNW 1012,4 36 0 0,0
02.08.2020 05:00:00 21,3 17,3 20,8 24,5 25,8 21,7 22 12 39 21 NNW 1012,9 30 0 0,0
02.08.2020 04:00:00 22,0 17,8 21,6 25,1 26,0 21,7 25 13 42 23 NW 1012,8 31 0 0,0
02.08.2020 03:00:00 23,5 17,9 23,1 25,5 26,2 21,7 21 11 40 22 NNW 1012,5 36 0 0,0
02.08.2020 02:00:00 24,5 17,3 24,1 25,9 26,3 21,7 22 12 37 20 NNW 1012,7 44 0 0,0
02.08.2020 01:00:00 25,1 17,6 24,6 26,2 26,5 21,7 20 11 35 19 NNW 1012,6 41 0 0,0
02.08.2020 00:00:00 25,4 17,8 24,6 26,6 26,7 21,7 19 10 31 17 NNW 1012,2 46 0 0,0
01.08.2020 23:00:00 25,0 16,7 23,9 27,4 26,8 21,7 10 6 15 8 NNW 1012,8 61 0 0,0
01.08.2020 22:00:00 27,0 16,6 25,2 28,5 26,9 21,7 8 4 11 6 W 1012,9 50 0 0,0
01.08.2020 21:00:00 28,2 16,3 27,4 30,0 26,8 21,7 8 5 10 5 NNE 1012,2 51 0 0,0
01.08.2020 20:00:00 30,9 15,6 31,1 31,6 26,6 21,7 4 2 9 5 E 1012,0 50 42 0,0
01.08.2020 19:00:00 31,9 14,9 35,5 32,5 26,2 21,7 5 3 11 6 SE 1012,0 70 60 0,0
01.08.2020 18:00:00 31,9 15,0 37,5 32,3 25,9 21,6 5 3 9 5 S 1012,9 54 58 0,0
01.08.2020 17:00:00 29,9 16,1 34,5 31,4 25,6 21,6 7 4 12 7 S 1013,3 45 52 0,0
01.08.2020 16:00:00 29,1 17,3 35,3 28,1 25,5 21,6 3 2 8 5 SSE 1013,9 28 27 0,0
01.08.2020 15:00:00 25,7 19,2 25,9 26,8 25,5 21,6 3 2 12 6 ENE 1014,5 50 0 0,1
01.08.2020 14:00:00 26,1 17,5 24,3 27,1 25,4 21,6 8 4 13 7 WSW 1014,8 41 0 0,0
01.08.2020 13:00:00 26,0 16,7 26,8 26,7 25,3 21,6 6 4 18 10 SW 1014,8 67 0 0,1
01.08.2020 12:00:00 26,1 15,9 24,2 27,8 25,1 21,6 14 7 24 13 NNW 1014,6 27 0 0,0
01.08.2020 11:00:00 28,7 14,4 30,5 27,6 24,9 21,5 18 10 33 18 NW 1014,6 47 21 0,0
01.08.2020 10:00:00 27,5 13,7 29,9 25,8 24,9 21,5 5 3 14 7 SSW 1014,1 46 47 0,0
01.08.2020 09:00:00 22,9 14,4 24,3 23,9 25,0 21,5 8 4 17 9 WSW 1014,9 75 43 0,0
01.08.2020 08:00:00 20,7 13,3 21,3 22,4 25,3 21,5 4 2 13 7 SSE 1014,3 65 57 0,0
01.08.2020 07:00:00 18,1 13,4 16,3 22,2 25,6 21,5 5 3 6 4 SW 1014,3 52 7 0,0
01.08.2020 06:00:00 18,0 13,0 15,9 22,5 26,0 21,5 6 3 9 5 NNE 1013,9 51 0 0,0
01.08.2020 05:00:00 18,6 14,0 15,7 23,0 26,4 21,5 4 2 5 3 W 1014,0 62 0 0,0
01.08.2020 04:00:00 19,0 12,7 16,2 23,7 26,8 21,5 3 2 6 3 E 1013,7 66 0 0,0
01.08.2020 03:00:00 20,0 12,2 16,9 24,4 27,2 21,4 4 2 7 4 N 1014,6 66 0 0,0

tt = temperature
td = dewpoint
tt 5cm = temperature 5cm
tt -5cm = temperature -5cm
tt -20cm = temperature -20cm
tt -100cm = temperature -100cm
ff = wind speed
fx = gusts
dd = wind direction
ppp = reduced air pressure
vv = visibility
sd = sunshine duration
rr = precipitation

Next stations